Torna al catalogo

DELTA 1 DEB

AttivoLEO
NORAD 7074·DEBRIS·🇺🇸 United States

Lanciato Nov 6, 1973 da Vandenberg Space Force Base

Loading…

Prossimi Passaggi (prossime 24 ore)

TLE

AggiornatoSource: Space-Track

Epoca: Sep 14, 2026, 13:53 UTC

1 07074U 73086BS  26257.57866253 -.00000023  00000-0  12270-3 0  9997
2 07074 101.9462  14.0154 0176055 294.3206 132.6009 12.72210718453631

Traccia DELTA 1 DEB in tempo reale con AllMySat

Download on the App Store